Waarnemingen

Advertentie
Mijn weer
Yecla, Spanje (8356): temperatuur & dauwpunt: 06.07.2020 13:00:00 - 12.07.2020 13:00:00 (CEST)Yecla, Spanje (8356): windsnelheid & windstoten: 06.07.2020 13:00:00 - 12.07.2020 13:00:00 (CEST)Yecla, Spanje (8356): windrichting: 06.07.2020 13:00:00 - 12.07.2020 13:00:00 (CEST)Yecla, Spanje (8356): luchtdruk: 06.07.2020 13:00:00 - 12.07.2020 13:00:00 (CEST)Yecla, Spanje (8356): zicht: 06.07.2020 13:00:00 - 12.07.2020 13:00:00 (CEST)Yecla, Spanje (8356): Zonneschijnduur: 06.07.2020 13:00:00 - 12.07.2020 13:00:00 (CEST)Yecla, Spanje (8356): neerslag: 06.07.2020 13:00:00 - 12.07.2020 13:00:00 (CEST)
Datum & Tijd tt [°C] td [°C] ff [km/u] ff [kn] fx [km/u] fx [kn] dd ppp [hPa] vv [km] sd [min] rr [mm]
12.07.2020 13:00:00 29,8 9,3 12 6 33 18 Z 1015,4 17 58 0,0
12.07.2020 12:00:00 28,2 13,0 10 5 23 12 OZO 1015,7 20 60 0,0
12.07.2020 11:00:00 26,6 12,2 13 7 21 11 OZO 1016,0 18 60 0,0
12.07.2020 10:00:00 23,2 15,3 6 3 11 6 ONO 1016,5 18 33 0,0
12.07.2020 09:00:00 20,4 16,2 7 4 25 14 NNO 1017,1 18 0 0,0
12.07.2020 08:00:00 19,2 16,8 11 6 26 14 Z 1017,7 15 0 -
12.07.2020 07:00:00 19,5 16,6 16 9 24 13 ZW 1019,8 15 0 0,0
12.07.2020 06:00:00 19,0 16,0 4 2 10 5 ONO 1018,4 14 0 0,0
12.07.2020 05:00:00 19,4 16,6 5 3 12 7 W 1018,1 14 0 0,0
12.07.2020 04:00:00 19,8 16,8 7 4 9 5 W 1018,1 13 0 0,0
12.07.2020 03:00:00 20,4 17,2 3 2 13 7 N 1018,0 14 0 0,0
12.07.2020 02:00:00 20,8 17,6 8 5 16 8 NO 1017,8 13 0 -
12.07.2020 01:00:00 20,5 17,5 8 5 18 10 NO 1018,0 13 0 0,0
12.07.2020 00:00:00 21,4 17,6 8 5 24 13 NO 1017,6 15 0 0,0
11.07.2020 23:00:00 22,6 17,3 14 8 22 12 NO 1016,9 18 0 0,0
11.07.2020 22:00:00 24,8 15,7 10 6 19 10 ONO 1016,0 17 0 0,0
11.07.2020 21:00:00 27,0 14,4 10 5 23 12 OZO 1015,1 20 34 0,0
11.07.2020 20:00:00 29,2 15,0 12 6 29 16 OZO 1014,2 20 60 -
11.07.2020 19:00:00 30,7 14,3 14 7 31 17 OZO 1013,8 20 50 0,0
11.07.2020 18:00:00 30,5 13,3 - - - - - 1014,1 20 57 0,0
11.07.2020 17:00:00 30,9 14,5 17 9 33 18 O 1014,0 20 60 0,0
11.07.2020 16:00:00 31,0 14,6 - - - - - 1014,1 20 60 0,0
11.07.2020 15:00:00 30,4 14,9 16 9 33 18 ONO 1014,7 20 60 0,0
11.07.2020 14:00:00 29,0 14,4 17 9 36 20 O 1015,5 18 60 -
11.07.2020 13:00:00 27,6 15,3 19 10 37 20 NO 1016,0 18 60 0,0
11.07.2020 12:00:00 26,2 15,5 20 11 35 19 NO 1016,3 15 60 0,0
11.07.2020 11:00:00 25,1 15,4 19 11 30 16 ONO 1016,3 17 60 0,0
11.07.2020 10:00:00 23,1 15,9 16 9 28 15 ONO 1016,5 20 60 0,0
11.07.2020 09:00:00 21,8 14,7 13 7 21 12 NO 1016,5 20 60 0,0
11.07.2020 08:00:00 18,3 14,6 3 1 10 5 WZW 1016,9 20 40 -
11.07.2020 07:00:00 18,3 13,9 6 3 18 10 ZO 1016,3 18 0 0,0
11.07.2020 06:00:00 17,4 14,3 6 3 11 6 OZO 1015,8 17 0 0,0
11.07.2020 05:00:00 18,9 15,0 5 3 16 9 O 1015,5 17 0 0,0
11.07.2020 04:00:00 19,6 15,4 8 4 15 8 ONO 1015,5 20 0 0,0
11.07.2020 03:00:00 20,1 15,1 4 2 9 5 O 1015,4 20 0 0,0
11.07.2020 02:00:00 20,9 15,9 6 3 10 6 NNO 1015,5 20 0 -
11.07.2020 01:00:00 21,7 16,2 5 3 13 7 OZO 1015,3 20 0 0,0
11.07.2020 00:00:00 22,5 16,0 9 5 19 10 NO 1015,0 20 0 0,0
10.07.2020 23:00:00 23,8 15,8 10 6 19 10 NO 1014,3 20 0 0,0
10.07.2020 22:00:00 25,2 14,3 6 4 18 10 O 1013,2 20 0 0,0
10.07.2020 21:00:00 27,0 14,4 10 5 27 15 OZO 1012,1 20 9 0,0
10.07.2020 20:00:00 29,5 14,0 15 8 28 15 ONO 1010,8 20 60 -
10.07.2020 19:00:00 30,0 14,1 14 8 25 14 O 1010,5 20 38 0,0
10.07.2020 18:00:00 30,9 11,8 13 7 29 16 OZO 1010,4 20 40 0,0
10.07.2020 17:00:00 32,9 9,0 5 3 27 14 ZO 1010,1 20 53 0,0
10.07.2020 16:00:00 31,6 9,2 7 4 24 13 O 1010,8 20 54 0,0
10.07.2020 15:00:00 32,1 10,8 10 5 22 12 NO 1011,2 17 60 0,0
10.07.2020 14:00:00 31,0 11,3 9 5 23 12 OZO 1012,1 17 60 -
10.07.2020 13:00:00 28,9 11,9 12 7 26 14 ONO 1012,9 20 60 0,0
10.07.2020 12:00:00 26,8 13,9 10 5 23 12 ONO 1013,4 20 60 0,0
10.07.2020 11:00:00 24,9 14,0 14 8 24 13 ONO 1014,1 20 60 0,0
10.07.2020 10:00:00 23,5 14,5 13 7 24 13 ONO 1014,4 20 60 0,0
10.07.2020 09:00:00 21,9 13,0 10 5 16 9 NO 1014,7 20 60 0,0
10.07.2020 08:00:00 17,8 14,3 3 2 9 5 Z 1015,2 19 42 -
10.07.2020 07:00:00 15,8 13,1 2 1 8 5 ZZW 1015,7 17 0 0,0
10.07.2020 06:00:00 16,3 13,4 5 3 9 5 WZW 1015,7 16 0 0,0
10.07.2020 05:00:00 17,2 14,6 3 2 10 6 N 1015,8 16 0 0,0
10.07.2020 04:00:00 17,9 15,2 2 1 11 6 WZW 1015,7 18 0 0,0
10.07.2020 03:00:00 19,0 15,3 4 2 12 7 W 1015,6 17 0 0,0
10.07.2020 02:00:00 20,1 16,6 8 4 21 11 NO 1015,8 20 0 -
10.07.2020 01:00:00 21,0 16,0 14 8 25 14 NO 1015,8 20 0 0,0
10.07.2020 00:00:00 22,1 15,2 13 7 21 11 ONO 1015,7 20 0 0,0
09.07.2020 23:00:00 23,1 14,9 9 5 19 11 NNO 1015,5 20 0 0,0
09.07.2020 22:00:00 24,4 8,8 4 2 26 14 ONO 1015,0 20 0 0,0
09.07.2020 21:00:00 26,0 5,6 6 4 34 18 OZO 1013,9 20 11 0,0
09.07.2020 20:00:00 28,8 5,6 16 9 36 19 ZO 1011,9 20 60 -
09.07.2020 19:00:00 30,6 11,0 14 8 31 17 O 1011,3 20 60 0,0
09.07.2020 18:00:00 30,9 10,3 14 8 29 16 O 1011,8 20 60 0,0
09.07.2020 17:00:00 31,4 11,2 15 8 32 18 OZO 1012,4 14 60 0,0
09.07.2020 16:00:00 30,5 13,8 17 9 29 15 ONO 1012,9 20 50 0,0
09.07.2020 15:00:00 30,6 13,4 9 5 24 13 O 1013,1 20 48 0,0
09.07.2020 14:00:00 29,7 13,5 13 7 26 14 NO 1013,8 20 57 -
09.07.2020 13:00:00 29,2 11,7 10 6 26 14 O 1014,4 20 60 0,0
09.07.2020 12:00:00 27,6 12,7 12 6 25 14 NO 1015,0 20 60 0,0
09.07.2020 11:00:00 25,6 15,3 10 5 23 13 O 1015,6 20 60 0,0
09.07.2020 10:00:00 23,6 16,1 11 6 21 12 ONO 1016,2 20 60 0,0
09.07.2020 09:00:00 22,2 14,8 11 6 19 10 NO 1015,6 20 60 0,0
09.07.2020 08:00:00 20,3 14,4 7 4 18 10 ZZW 1015,8 20 5 -
09.07.2020 07:00:00 20,2 14,5 4 2 21 12 ZZO 1015,4 20 0 0,0
09.07.2020 06:00:00 19,7 14,9 5 3 19 10 OZO 1015,6 20 0 0,0
09.07.2020 05:00:00 20,5 15,1 7 4 27 15 ZW 1016,3 20 0 0,0
09.07.2020 04:00:00 21,1 15,9 27 15 - - W 1016,1 20 0 0,0
09.07.2020 03:00:00 22,2 15,8 7 4 - - N 1014,6 20 0 0,0
09.07.2020 02:00:00 22,9 15,4 8 5 25 13 ONO 1015,1 20 0 -
09.07.2020 01:00:00 22,4 16,2 8 5 19 10 ZO 1016,2 20 0 0,0
09.07.2020 00:00:00 22,8 16,1 17 9 24 13 ONO 1015,8 20 0 0,0
08.07.2020 23:00:00 23,6 15,6 5 3 29 16 NO 1016,3 20 0 0,0
08.07.2020 22:00:00 23,9 15,2 18 10 34 18 NO 1015,0 20 0 0,0
08.07.2020 21:00:00 27,8 10,9 11 6 18 10 O 1013,4 20 10 0,0
08.07.2020 20:00:00 28,4 10,5 6 4 23 13 ZZO 1013,3 20 6 -
08.07.2020 19:00:00 29,0 10,6 14 8 26 14 ONO 1012,7 20 0 0,0
08.07.2020 18:00:00 28,9 10,0 19 10 27 15 ZW 1015,7 20 0 0,0
08.07.2020 17:00:00 30,3 9,2 11 6 26 14 Z 1014,2 20 49 0,0
08.07.2020 16:00:00 32,0 8,9 12 6 29 16 ZO 1013,2 17 60 0,0
08.07.2020 15:00:00 31,8 9,3 10 6 24 13 OZO 1013,6 20 56 0,0
08.07.2020 14:00:00 30,6 7,7 14 7 26 14 ZO 1013,6 20 36 -
08.07.2020 13:00:00 30,3 6,8 9 5 19 10 ZZW 1015,0 20 56 0,0
08.07.2020 12:00:00 28,4 10,5 11 6 21 11 ZZO 1014,9 20 57 0,0
08.07.2020 11:00:00 26,6 11,4 7 4 17 9 ZO 1015,5 20 52 0,0
08.07.2020 10:00:00 24,2 13,8 6 3 13 7 NO 1016,3 19 60 0,0
08.07.2020 09:00:00 21,9 16,1 4 2 13 7 ONO 1016,9 19 60 0,0
08.07.2020 08:00:00 18,5 16,0 9 5 13 7 WZW 1017,1 15 0 -
08.07.2020 07:00:00 17,6 15,3 6 3 10 5 W 1016,9 14 0 0,0
08.07.2020 06:00:00 17,3 14,4 6 3 9 5 WZW 1016,8 18 0 0,0
08.07.2020 05:00:00 17,7 14,4 3 2 6 3 WZW 1016,9 18 0 0,0
08.07.2020 04:00:00 18,5 14,6 5 3 6 4 W 1016,5 20 0 0,0
08.07.2020 03:00:00 19,5 14,5 4 2 9 5 WZW 1016,4 20 0 0,0
08.07.2020 02:00:00 20,2 14,5 5 3 9 5 WZW 1016,3 20 0 -
08.07.2020 01:00:00 22,3 15,6 5 3 10 5 NNO 1016,0 20 0 0,0
08.07.2020 00:00:00 23,3 14,8 7 4 20 11 NO 1015,6 20 0 0,0
07.07.2020 23:00:00 24,9 14,6 9 5 16 9 NNO 1014,7 20 0 0,0
07.07.2020 22:00:00 28,0 12,0 5 3 12 7 O 1013,2 20 0 0,0
07.07.2020 21:00:00 30,3 11,8 6 3 19 10 ZZW 1012,1 20 36 0,0
07.07.2020 20:00:00 32,2 11,9 13 7 21 12 Z 1011,4 20 60 -
07.07.2020 19:00:00 33,6 10,9 12 6 29 16 Z 1010,8 20 60 0,0
07.07.2020 18:00:00 34,9 10,0 15 8 33 18 ZZO 1010,6 20 60 0,0
07.07.2020 17:00:00 36,2 5,5 15 8 30 16 Z 1010,6 20 60 0,0
07.07.2020 16:00:00 36,3 4,5 14 8 29 16 ZZO 1010,6 20 60 0,0
07.07.2020 15:00:00 35,8 5,1 10 5 23 12 Z 1011,2 20 60 0,0
07.07.2020 14:00:00 35,1 5,5 5 3 17 9 OZO 1012,0 20 60 -
07.07.2020 13:00:00 32,8 5,3 6 3 18 10 W 1013,1 20 60 0,0
07.07.2020 12:00:00 30,4 5,6 6 3 14 8 Z 1013,7 20 60 0,0
07.07.2020 11:00:00 28,9 5,0 6 3 11 6 Z 1014,1 20 60 0,0
07.07.2020 10:00:00 26,3 3,6 4 2 10 5 NO 1015,0 20 60 0,0
07.07.2020 09:00:00 22,3 5,3 1 1 6 3 ZZW 1015,8 20 60 0,0
07.07.2020 08:00:00 17,6 5,8 1 1 4 2 ONO 1016,7 20 46 -
07.07.2020 07:00:00 16,5 4,1 4 2 9 5 W 1016,8 20 0 0,0
07.07.2020 06:00:00 16,8 4,5 7 4 11 6 WZW 1016,6 20 0 0,0
07.07.2020 05:00:00 - - - - - - - - - - -
07.07.2020 04:00:00 19,3 6,1 11 6 15 8 W 1016,2 20 0 0,0
07.07.2020 03:00:00 19,4 7,1 8 4 13 7 W 1016,6 20 0 0,0
07.07.2020 02:00:00 20,2 7,3 7 4 11 6 W 1016,5 20 0 -
07.07.2020 01:00:00 20,7 8,0 6 3 8 4 WZW 1016,7 20 0 0,0
07.07.2020 00:00:00 22,1 8,5 2 1 5 3 N 1016,5 20 0 0,0
06.07.2020 23:00:00 24,0 8,4 2 1 17 9 ZZW 1015,7 20 0 0,0
06.07.2020 22:00:00 26,5 7,6 11 6 21 12 WZW 1014,3 20 0 0,0
06.07.2020 21:00:00 28,8 8,0 9 5 20 11 Z 1013,2 20 37 0,0
06.07.2020 20:00:00 31,2 7,6 14 7 23 13 ZZW 1012,4 20 60 -
06.07.2020 19:00:00 32,5 8,0 12 6 27 15 Z 1012,3 20 60 0,0
06.07.2020 18:00:00 34,0 8,5 12 6 26 14 ZZO 1012,0 20 60 0,0
06.07.2020 17:00:00 34,6 9,8 11 6 31 17 ZO 1011,9 20 60 0,0
06.07.2020 16:00:00 35,2 8,9 11 6 27 14 ZO 1012,0 20 59 0,0
06.07.2020 15:00:00 35,3 8,1 8 4 25 13 ZZO 1012,3 20 58 0,0
06.07.2020 14:00:00 34,1 8,7 8 5 24 13 O 1013,0 17 60 -
06.07.2020 13:00:00 33,0 9,7 10 5 21 11 O 1013,7 19 60 0,0

tt = temperatuur
td = dauwpunt
ff = windsnelheid
fx = windstoten
dd = windrichting
ppp = luchtdruk
vv = zicht
sd = Zonneschijnduur
rr = neerslag

Weerstations in de omgeving